Weather reports worldwide

Advertisment
Langres, France (7283): temperature & dewpoint: 29.07.2020 17:00:00 - 04.08.2020 17:00:00 (CEST)Langres, France (7283): temperature 5cm: 29.07.2020 17:00:00 - 04.08.2020 17:00:00 (CEST)Langres, France (7283): wind speed & gusts: 29.07.2020 17:00:00 - 04.08.2020 17:00:00 (CEST)Langres, France (7283): wind direction: 29.07.2020 17:00:00 - 04.08.2020 17:00:00 (CEST)Langres, France (7283): reduced air pressure: 29.07.2020 17:00:00 - 04.08.2020 17:00:00 (CEST)Langres, France (7283): visibility: 29.07.2020 17:00:00 - 04.08.2020 17:00:00 (CEST)Langres, France (7283): sunshine duration: 29.07.2020 17:00:00 - 04.08.2020 17:00:00 (CEST)Langres, France (7283): precipitation: 29.07.2020 17:00:00 - 04.08.2020 17:00:00 (CEST)
Date & Time tt [°C] td [°C] tt 5cm [°C] ff [km/h] ff [kn] fx [km/h] fx [kn] dd ppp [hPa] vv [km] sd [min] rr [mm]
04.08.2020 17:00:00 - - - - - - - - - - - -
04.08.2020 16:00:00 22,6 8,3 26,8 8 4 24 13 N 1015,7 20 32 0,0
04.08.2020 15:00:00 20,9 7,8 24,9 8 5 21 11 N 1016,1 20 26 0,0
04.08.2020 14:00:00 20,3 8,6 25,6 10 5 27 14 N 1016,2 20 38 0,0
04.08.2020 13:00:00 20,9 9,8 28,4 13 7 26 14 N 1016,1 20 55 0,0
04.08.2020 12:00:00 19,1 10,6 26,8 9 5 25 13 NNW 1016,2 20 60 0,0
04.08.2020 11:00:00 16,6 10,7 18,5 13 7 26 14 NNW 1016,7 20 60 0,0
04.08.2020 10:00:00 13,5 10,3 15,2 11 6 24 13 NW 1017,2 20 9 0,0
04.08.2020 09:00:00 12,2 10,3 12,9 10 5 22 12 NNW 1017,2 20 2 0,0
04.08.2020 08:00:00 11,5 10,6 11,0 8 5 27 15 NNW 1016,6 12 12 0,0
04.08.2020 07:00:00 10,8 10,3 10,0 13 7 29 16 NW 1016,2 4,7 0 0,0
04.08.2020 06:00:00 10,7 10,1 9,7 13 7 26 14 WNW 1015,7 16 0 0,0
04.08.2020 05:00:00 11,0 9,9 9,7 10 5 21 11 WNW 1015,6 20 0 0,0
04.08.2020 04:00:00 11,6 9,7 10,6 11 6 28 15 WNW 1015,4 20 0 0,0
04.08.2020 03:00:00 12,2 9,8 11,3 16 9 32 18 WNW 1015,1 20 0 0,0
04.08.2020 02:00:00 12,9 9,3 12,1 15 8 28 15 WNW 1014,9 20 0 0,0
04.08.2020 01:00:00 13,3 9,2 12,2 10 6 20 11 WNW 1014,6 20 0 0,0
04.08.2020 00:00:00 13,9 8,7 12,0 8 5 28 15 NW 1014,6 20 0 0,0
03.08.2020 23:00:00 14,8 8,1 12,8 12 6 22 12 WNW 1014,0 20 0 0,0
03.08.2020 22:00:00 15,9 8,1 14,4 9 5 29 16 WNW 1013,5 20 0 0,0
03.08.2020 21:00:00 16,6 8,8 15,8 13 7 27 15 W 1012,7 20 45 0,0
03.08.2020 20:00:00 18,1 7,8 19,1 14 7 32 17 W 1012,3 20 20 0,0
03.08.2020 19:00:00 18,3 7,4 19,2 18 10 40 22 W 1012,4 20 0 0,0
03.08.2020 18:00:00 19,0 8,3 20,5 21 11 40 22 W 1012,2 20 40 0,0
03.08.2020 17:00:00 20,7 7,0 21,9 19 10 33 18 W 1011,7 20 12 0,0
03.08.2020 16:00:00 20,0 7,7 22,8 16 9 38 21 W 1012,2 20 22 0,0
03.08.2020 15:00:00 21,2 6,3 25,1 16 9 36 20 NW 1012,2 20 44 0,0
03.08.2020 14:00:00 20,8 6,0 28,4 21 11 38 20 WNW 1012,7 20 60 0,0
03.08.2020 13:00:00 20,2 6,5 25,9 17 9 34 19 WNW 1013,1 20 53 0,0
03.08.2020 12:00:00 19,3 6,7 22,0 14 7 29 16 WNW 1013,6 20 33 0,0
03.08.2020 11:00:00 16,9 8,3 18,7 14 8 27 14 WNW 1014,1 20 2 0,0
03.08.2020 10:00:00 16,2 8,4 17,1 10 5 24 13 WNW 1014,2 20 14 0,0
03.08.2020 09:00:00 14,9 8,6 14,4 13 7 25 13 WNW 1014,3 20 13 0,0
03.08.2020 08:00:00 13,8 8,6 13,3 12 6 23 13 WNW 1014,5 20 0 0,0
03.08.2020 07:00:00 13,5 8,5 13,2 13 7 27 14 WNW 1014,9 20 0 0,0
03.08.2020 06:00:00 13,8 8,6 13,0 14 8 22 12 WNW 1014,7 20 0 0,0
03.08.2020 05:00:00 14,2 8,4 11,6 8 4 14 7 W 1014,7 20 0 0,0
03.08.2020 04:00:00 14,8 8,1 12,7 4 2 16 9 WNW 1015,0 20 0 0,0
03.08.2020 03:00:00 15,6 8,3 14,3 6 4 16 9 NW 1014,9 20 0 0,0
03.08.2020 02:00:00 16,5 8,5 14,5 6 3 21 11 N 1015,0 20 0 0,0
03.08.2020 01:00:00 17,6 8,4 15,7 7 4 20 11 NNW 1015,1 20 0 0,0
03.08.2020 00:00:00 18,3 8,5 15,7 7 4 16 8 WNW 1014,9 20 0 0,0
02.08.2020 23:00:00 18,7 8,9 15,7 6 3 13 7 WNW 1015,1 20 0 0,0
02.08.2020 22:00:00 19,6 9,2 16,5 5 3 15 8 NW 1015,0 20 0 0,0
02.08.2020 21:00:00 21,0 10,2 19,3 7 4 19 10 WNW 1014,3 20 38 0,0
02.08.2020 20:00:00 22,3 9,8 22,6 10 5 26 14 WNW 1013,7 20 36 0,0
02.08.2020 19:00:00 23,9 9,8 28,8 14 8 29 15 NW 1013,5 20 60 0,0
02.08.2020 18:00:00 23,8 11,1 25,9 14 8 28 15 WNW 1013,9 20 44 0,0
02.08.2020 17:00:00 23,1 11,2 26,6 9 5 28 15 NNW 1014,4 20 8 0,0
02.08.2020 16:00:00 24,8 11,4 27,1 11 6 26 14 WNW 1014,5 20 28 0,0
02.08.2020 15:00:00 22,8 11,8 28,4 14 7 24 13 NW 1015,2 20 21 0,0
02.08.2020 14:00:00 22,9 13,1 26,7 8 4 22 12 NW 1015,5 20 24 0,0
02.08.2020 13:00:00 22,1 12,6 25,0 11 6 25 13 NNW 1015,6 18 48 0,0
02.08.2020 12:00:00 20,4 11,9 23,6 10 5 25 13 NW 1016,6 20 8 0,0
02.08.2020 11:00:00 19,1 13,3 21,8 9 5 22 12 N 1016,7 20 13 0,0
02.08.2020 10:00:00 17,9 14,0 16,8 11 6 19 10 WNW 1016,5 20 7 0,0
02.08.2020 09:00:00 16,2 13,7 15,7 7 4 13 7 NW 1016,6 20 0 0,0
02.08.2020 08:00:00 15,6 14,1 14,6 5 3 22 12 NNE 1016,4 20 0 0,4
02.08.2020 07:00:00 16,3 13,2 15,1 8 5 27 15 NW 1016,4 20 0 0,0
02.08.2020 06:00:00 17,4 13,3 15,6 9 5 25 13 WNW 1015,9 20 0 0,0
02.08.2020 05:00:00 18,6 15,8 16,1 11 6 21 11 W 1015,6 20 0 0,4
02.08.2020 04:00:00 20,1 15,3 17,8 3 2 9 5 NNW 1015,5 20 0 0,0
02.08.2020 03:00:00 20,9 15,0 19,4 4 2 11 6 WNW 1015,6 20 0 0,0
02.08.2020 02:00:00 21,2 14,6 19,0 5 3 11 6 WNW 1016,2 20 0 0,0
02.08.2020 01:00:00 21,6 14,5 18,7 6 3 16 9 NW 1015,7 20 0 0,0
02.08.2020 00:00:00 22,2 14,8 20,4 8 4 19 10 NW 1014,8 20 0 0,0
01.08.2020 23:00:00 23,2 14,7 21,6 7 4 20 11 NW 1015,0 20 0 0,0
01.08.2020 22:00:00 24,3 15,2 22,9 8 4 29 16 NNW 1014,3 20 0 0,0
01.08.2020 21:00:00 25,5 15,2 24,6 10 5 32 18 NW 1013,8 20 13 0,0
01.08.2020 20:00:00 27,4 14,8 27,3 14 8 32 18 WNW 1012,9 20 2 0,0
01.08.2020 19:00:00 29,6 15,0 31,1 11 6 35 19 WNW 1012,6 20 39 0,0
01.08.2020 18:00:00 30,8 14,4 32,2 17 9 36 19 NW 1011,8 20 30 0,0
01.08.2020 17:00:00 31,6 15,1 32,6 13 7 26 14 WNW 1011,8 20 10 0,0
01.08.2020 16:00:00 32,7 13,4 35,5 11 6 23 13 WNW 1012,0 20 25 0,0
01.08.2020 15:00:00 32,4 12,6 35,9 9 5 24 13 W 1012,3 20 50 0,0
01.08.2020 14:00:00 33,0 12,6 41,7 6 4 26 14 W 1012,9 20 60 0,0
01.08.2020 13:00:00 31,7 13,9 41,2 4 2 13 7 W 1013,7 20 60 0,0
01.08.2020 12:00:00 29,8 14,4 34,6 6 3 13 7 SW 1014,3 20 53 0,0
01.08.2020 11:00:00 27,4 14,1 23,8 4 2 9 5 S 1014,6 20 23 0,0
01.08.2020 10:00:00 22,0 16,7 19,2 3 1 11 6 W 1015,6 20 0 0,2
01.08.2020 09:00:00 22,6 14,7 20,5 6 4 11 6 WSW 1015,7 19 13 0,0
01.08.2020 08:00:00 23,9 13,7 20,9 6 4 13 7 W 1015,2 20 19 0,0
01.08.2020 07:00:00 23,2 14,5 14,9 5 3 10 6 WSW 1015,0 17 19 0,0
01.08.2020 06:00:00 21,3 13,5 12,9 6 3 9 5 SW 1015,0 20 0 0,0
01.08.2020 05:00:00 21,7 12,8 13,7 3 2 29 16 SW 1015,1 20 0 0,0
01.08.2020 04:00:00 23,2 13,1 18,2 4 2 22 12 SE 1014,6 20 0 0,0
01.08.2020 03:00:00 24,3 12,6 22,1 16 8 29 16 WSW 1013,5 20 0 0,0
01.08.2020 02:00:00 25,6 12,4 23,1 4 2 35 19 NNW 1013,1 20 0 0,0
01.08.2020 01:00:00 25,8 12,3 25,1 20 11 54 29 WSW 1015,0 20 0 0,0
01.08.2020 00:00:00 26,9 12,2 26,2 29 15 48 26 WSW 1014,5 20 0 0,0
31.07.2020 23:00:00 27,8 11,8 26,9 23 12 49 27 W 1013,6 20 0 0,0
31.07.2020 22:00:00 29,9 12,3 20,3 15 8 27 14 WSW 1012,5 20 0 0,0
31.07.2020 21:00:00 30,1 12,5 22,7 6 3 12 7 SSE 1011,5 20 0 0,0
31.07.2020 20:00:00 33,0 12,1 31,1 7 4 19 10 ESE 1010,8 20 14 0,0
31.07.2020 19:00:00 35,6 11,9 36,3 10 5 27 14 SE 1010,3 20 56 0,0
31.07.2020 18:00:00 37,4 12,1 43,8 9 5 24 13 SSE 1010,1 20 60 0,0
31.07.2020 17:00:00 37,0 11,8 45,7 5 3 23 13 ESE 1010,8 18 60 0,0
31.07.2020 16:00:00 37,0 13,7 45,7 11 6 29 16 SSW 1011,3 20 60 0,0
31.07.2020 15:00:00 36,6 13,4 45,2 11 6 29 16 SSE 1011,6 17 60 0,0
31.07.2020 14:00:00 34,7 14,6 43,4 8 5 23 12 ESE 1012,2 19 60 0,0
31.07.2020 13:00:00 33,4 14,0 42,6 10 5 23 13 E 1012,8 19 60 0,0
31.07.2020 12:00:00 32,6 14,2 40,0 9 5 26 14 E 1013,4 12 60 0,0
31.07.2020 11:00:00 30,1 13,8 36,8 10 5 23 12 SE 1014,0 18 60 0,0
31.07.2020 10:00:00 28,7 13,4 30,2 13 7 26 14 SSE 1014,3 20 60 0,0
31.07.2020 09:00:00 24,5 11,1 23,3 10 5 16 8 E 1015,2 20 60 0,0
31.07.2020 08:00:00 22,3 9,1 17,7 10 5 16 9 E 1015,3 20 60 0,0
31.07.2020 07:00:00 20,6 7,9 15,6 5 3 14 7 ENE 1015,8 20 20 0,0
31.07.2020 06:00:00 20,0 7,0 16,9 9 5 16 9 ENE 1015,8 20 0 0,0
31.07.2020 05:00:00 21,0 6,5 17,2 11 6 16 8 E 1015,7 20 0 0,0
31.07.2020 04:00:00 22,5 5,8 15,4 9 5 17 9 E 1015,8 20 0 0,0
31.07.2020 03:00:00 22,7 5,6 15,7 7 4 16 9 E 1015,7 20 0 0,0
31.07.2020 02:00:00 22,9 5,3 17,4 8 5 15 8 E 1015,9 20 0 0,0
31.07.2020 01:00:00 22,9 5,8 18,2 8 4 15 8 E 1016,1 20 0 0,0
31.07.2020 00:00:00 23,8 6,1 16,9 9 5 17 9 E 1015,9 20 0 0,0
30.07.2020 23:00:00 23,8 7,4 16,2 5 3 11 6 ENE 1015,7 20 0 0,0
30.07.2020 22:00:00 25,3 7,9 18,2 6 3 15 8 E 1015,1 19 0 0,0
30.07.2020 21:00:00 27,3 7,7 19,1 4 2 12 6 E 1014,5 13 38 0,0
30.07.2020 20:00:00 30,1 7,3 32,0 5 3 13 7 ENE 1014,2 20 60 0,0
30.07.2020 19:00:00 31,4 7,1 38,1 4 2 11 6 NE 1013,9 20 60 0,0
30.07.2020 18:00:00 31,7 6,0 40,1 5 3 17 9 ENE 1014,2 20 60 0,0
30.07.2020 17:00:00 31,6 6,6 42,0 8 4 16 9 ENE 1014,8 19 60 0,0
30.07.2020 16:00:00 31,0 6,8 43,0 7 4 16 9 NNE 1015,3 18 60 0,0
30.07.2020 15:00:00 30,1 6,7 40,8 5 3 16 9 E 1015,8 17 60 0,0
30.07.2020 14:00:00 29,5 7,4 41,2 6 3 19 11 E 1016,4 20 60 0,0
30.07.2020 13:00:00 28,3 8,6 38,3 6 3 19 11 E 1017,1 20 60 0,0
30.07.2020 12:00:00 27,5 9,3 36,4 10 6 22 12 ESE 1017,7 20 60 0,0
30.07.2020 11:00:00 25,7 9,1 32,3 9 5 16 9 ESE 1018,0 20 60 0,0
30.07.2020 10:00:00 22,9 8,6 26,4 7 4 13 7 NE 1018,3 20 60 0,0
30.07.2020 09:00:00 20,5 7,1 19,8 7 4 16 8 ENE 1018,9 20 60 0,0
30.07.2020 08:00:00 19,4 6,8 10,3 5 3 11 6 NE 1019,0 20 60 0,0
30.07.2020 07:00:00 16,8 6,0 8,1 5 3 10 6 NNE 1019,4 20 22 0,0
30.07.2020 06:00:00 15,3 5,8 8,6 6 3 13 7 NNE 1019,7 20 0 0,0
30.07.2020 05:00:00 16,0 5,9 10,0 6 3 16 9 NE 1019,4 20 0 0,0
30.07.2020 04:00:00 17,0 5,6 11,8 8 5 22 12 NE 1019,2 20 0 0,0
30.07.2020 03:00:00 17,5 5,4 11,4 7 4 14 8 NNE 1019,4 20 0 0,0
30.07.2020 02:00:00 17,8 4,7 12,2 6 4 14 8 NNE 1019,4 20 0 0,0
30.07.2020 01:00:00 18,2 4,7 11,2 6 4 14 8 N 1019,3 20 0 0,0
30.07.2020 00:00:00 18,6 5,8 12,0 7 4 15 8 N 1019,1 20 0 0,0
29.07.2020 23:00:00 19,8 6,2 15,1 8 4 16 9 N 1019,0 20 0 0,0
29.07.2020 22:00:00 21,1 6,6 17,3 8 4 20 11 N 1018,4 20 0 0,0
29.07.2020 21:00:00 23,0 6,7 18,9 6 3 17 9 NNW 1017,6 20 39 0,0
29.07.2020 20:00:00 25,7 5,3 28,4 4 2 21 12 N 1016,9 20 60 0,0
29.07.2020 19:00:00 26,1 5,1 33,7 7 4 17 9 N 1016,9 20 60 0,0
29.07.2020 18:00:00 26,6 6,1 36,2 5 3 21 12 NE 1016,8 20 60 0,0
29.07.2020 17:00:00 26,9 6,3 36,1 7 4 23 12 WNW 1017,2 20 60 0,0

tt = temperature
td = dewpoint
tt 5cm = temperature 5cm
ff = wind speed
fx = gusts
dd = wind direction
ppp = reduced air pressure
vv = visibility
sd = sunshine duration
rr = precipitation

Next stations